Fort Polk, LA

2:38 PM CDT on August 18, 2017 (GMT -0500)
Fort Polk

Weather History for KDNK - January, 2013

Change the Weather History Date:

Thursday, January 3, 2013

  Actual Average (KPOE) Record (KPOE)
Temperature  
Mean Temperature 43 °F -  
Max Temperature 51 °F 58 °F 77 °F (1997)
Min Temperature 35 °F 38 °F 19 °F (2001)
Degree Days  
Heating Degree Days 22    
Moisture  
Dew Point 33 °F    
Average Humidity 73    
Maximum Humidity 93    
Minimum Humidity 41    
Precipitation  
Precipitation 0.00 in - - ()
Sea Level Pressure  
Sea Level Pressure 30.35 in    
Wind  
Wind Speed 7 mph (North)    
Max Wind Speed 12 mph    
Max Gust Speed 20 mph    
Visibility 10 miles    
Events      
Averages and records for this station are not official NWS values.
T = Trace of Precipitation, MM = Missing Value Source: NWS Daily Summary

Daily Weather History Graph

Daily Weather History Graph

Search for Another Location

Airport or City:

Trip Planner

Search our weather history database for the weather conditions in past years. The results will help you decide how hot, cold, wet, or windy it might be!

Date:

Astronomy

Jan. 03, 2013 Rise Set
Actual Time 7:11 AM CST 5:22 PM CST
Civil Twilight 6:44 AM CST 5:49 PM CST
Nautical Twilight 6:14 AM CST 6:19 PM CST
Astronomical Twilight 5:44 AM CST 6:48 PM CST
Moon 11:30 PM CST (1/3) 10:48 AM CST (1/3)
Length of Visible Light 11h 04m
Length of Day
10h 11m
Waning Gibbous, 65% of the Moon is Illuminated
Jan 3
Waning Gibbous
Jan 4
Last Quarter
Jan 11
New
Jan 18
First Quarter
Jan 26
Full

Hourly Weather History & Observations

Time (CST) Temp. Windchill Dew Point Humidity Pressure Visibility Wind Dir Wind Speed Gust Speed Precip Events Conditions
12:36 AM 39.2 °F 35.0 °F 35.6 °F 87% 30.28 in 10.0 mi North 5.8 mph - N/A   Overcast
12:53 AM 39.0 °F 34.0 °F 36.0 °F 89% 30.29 in 10.0 mi North 6.9 mph - N/A   Overcast
1:53 AM 39.0 °F 34.0 °F 36.0 °F 89% 30.30 in 10.0 mi North 6.9 mph - N/A   Overcast
2:53 AM 39.0 °F 32.8 °F 35.1 °F 86% 30.30 in 10.0 mi North 9.2 mph - N/A   Overcast
3:31 AM 39.2 °F 33.6 °F 35.6 °F 87% 30.30 in 10.0 mi North 8.1 mph - N/A   Overcast
3:42 AM 39.2 °F 33.6 °F 35.6 °F 87% 30.30 in 10.0 mi North 8.1 mph - N/A   Overcast
3:53 AM 39.0 °F 34.0 °F 35.1 °F 86% 30.31 in 10.0 mi North 6.9 mph - N/A   Overcast
4:53 AM 39.0 °F 34.0 °F 35.1 °F 86% 30.31 in 10.0 mi North 6.9 mph - N/A   Overcast
5:45 AM 37.4 °F 32.1 °F 35.6 °F 93% 30.31 in 10.0 mi North 6.9 mph - N/A   Overcast
5:53 AM 37.9 °F 33.5 °F 35.1 °F 89% 30.32 in 10.0 mi North 5.8 mph - N/A   Overcast
6:07 AM 37.4 °F 32.8 °F 33.8 °F 87% 30.32 in 10.0 mi North 5.8 mph - N/A   Overcast
6:53 AM 37.0 °F 32.4 °F 34.0 °F 89% 30.34 in 10.0 mi North 5.8 mph - N/A   Overcast
7:29 AM 35.6 °F 29.9 °F 33.8 °F 93% 30.35 in 9.0 mi North 6.9 mph - N/A   Scattered Clouds
7:53 AM 36.0 °F 29.0 °F 32.0 °F 86% 30.37 in 8.0 mi NNE 9.2 mph - N/A   Clear
8:53 AM 39.0 °F 34.0 °F 33.1 °F 79% 30.39 in 9.0 mi North 6.9 mph - N/A   Clear
9:53 AM 43.0 °F 38.2 °F 33.1 °F 68% 30.41 in 10.0 mi North 8.1 mph - N/A   Clear
10:53 AM 45.0 °F 40.6 °F 30.9 °F 58% 30.40 in 10.0 mi North 8.1 mph - N/A   Clear
11:53 AM 48.0 °F - 30.0 °F 50% 30.37 in 10.0 mi North 8.1 mph - N/A   Clear
12:53 PM 50.0 °F - 28.0 °F 43% 30.33 in 10.0 mi North 9.2 mph - N/A   Clear
1:53 PM 51.1 °F - 28.0 °F 41% 30.31 in 10.0 mi NNE 11.5 mph 19.6 mph N/A   Clear
2:53 PM 51.1 °F - 28.9 °F 43% 30.31 in 10.0 mi NNE 10.4 mph - N/A   Clear
3:53 PM 48.9 °F - 30.0 °F 48% 30.33 in 10.0 mi NNE 8.1 mph - N/A   Clear
4:53 PM 48.9 °F - 32.0 °F 52% 30.36 in 10.0 mi NNE 6.9 mph - N/A   Clear
5:53 PM 46.0 °F 44.8 °F 34.0 °F 63% 30.39 in 10.0 mi NNW 3.5 mph - N/A   Clear
6:53 PM 45.0 °F 42.6 °F 35.1 °F 68% 30.39 in 10.0 mi North 4.6 mph - N/A   Overcast
7:53 PM 46.0 °F 42.5 °F 34.0 °F 63% 30.40 in 10.0 mi North 6.9 mph - N/A   Overcast
8:53 PM 45.0 °F 41.8 °F 34.0 °F 65% 30.41 in 10.0 mi NE 5.8 mph - N/A   Overcast
9:53 PM 44.1 °F 41.5 °F 34.0 °F 68% 30.43 in 10.0 mi NE 4.6 mph - N/A   Overcast
10:53 PM 43.0 °F 39.5 °F 34.0 °F 71% 30.41 in 10.0 mi NE 5.8 mph - N/A   Clear
11:53 PM 41.0 °F 36.4 °F 33.1 °F 73% 30.41 in 10.0 mi NNE 6.9 mph - N/A   Partly Cloudy